Temp
17 17 17 17 17 17 17 17 17 17 17 16 16 16 15 15 14 14 14 14 14 13 13 13 13 13 12 12 12 12 11 11 10 10 10 10 10 10 10 10 10 10
17 17 17 17 17 17 17 17 17 17 17 17 16 16 15 15 15 14 14 14 13 13 13 13 13 13 12 12 12 11 11 11 10 10 10 10 10 10 10 10 10 10
17 17 17 17 17 17 17 17 17 17 17 16 16 16 15 15 15 14 14 14 14 13 13 13 13 12 12 12 12 11 11 10 10 10 10 10 10 10 10 10 10 9
16 17 17 17 17 17 17 17 17 17 16 16 16 16 15 15 15 14 14 14 13 13 13 13 13 12 12 12 11 11 10 10 10 10 10 10 10 10 9 9 9 9
16 17 17 17 17 17 17 17 17 17 17 16 16 16 15 15 15 14 14 14 13 13 13 13 13 12 12 12 11 11 10 10 10 10 10 10 9 9 9 9 9 9
16 16 16 17 17 16 16 17 17 17 17 16 16 16 15 15 15 14 14 14 13 13 13 13 13 12 12 12 11 11 10 10 10 10 10 10 9 9 9 9 9 9
15 15 16 16 16 16 16 16 16 17 17 16 16 16 15 15 15 14 14 14 13 13 13 13 12 12 12 11 11 11 10 10 10 10 10 10 9 9 9 9 9 9
16 16 16 16 16 16 16 16 16 16 16 16 16 15 15 15 15 14 14 14 13 13 12 12 12 12 12 11 11 11 10 10 10 10 9 9 9 9 9 9 8 9
16 16 16 16 15 15 16 16 16 16 16 16 16 15 15 15 15 14 14 14 13 13 12 12 12 12 12 11 11 10 10 10 10 9 9 9 9 9 9 8 8 8
15 15 15 15 15 15 15 15 15 16 16 16 15 15 15 15 15 14 14 14 13 12 12 12 12 12 11 11 11 10 10 10 9 9 9 9 8 8 8 8 8 8
14 14 14 14 14 15 15 15 15 14 15 15 15 15 15 15 14 14 14 13 13 13 12 12 12 12 11 11 10 10 10 9 9 8 8 8 8 8 8 8 7 7
13 13 13 13 14 14 14 14 14 14 14 13 13 13 13 14 14 14 14 13 13 13 12 12 12 12 11 10 10 10 9 9 8 8 8 8 8 7 7 7 7 7
13 13 12 12 13 13 14 14 13 13 13 12 12 12 12 13 13 14 14 13 13 13 12 12 12 11 11 10 10 9 9 8 8 8 8 8 8 7 7 7 7 7
13 13 13 12 13 13 13 13 13 13 12 12 12 13 13 13 13 13 13 13 13 12 12 12 11 11 10 10 9 9 9 8 8 8 7 7 7 7 7 7 7 7
12 12 12 12 12 13 13 13 13 13 12 12 12 12 13 13 13 13 13 13 12 12 12 11 11 10 10 9 9 8 8 8 7 7 7 6 6 6 6 6 6 6
12 12 12 12 12 12 12 12 12 12 12 12 12 12 12 13 13 13 13 12 12 12 11 11 10 10 9 9 8 8 7 7 7 6 6 6 6 6 6 5 5 5
11 11 11 11 12 12 12 12 12 12 12 12 11 11 12 12 12 12 12 12 12 11 10 10 9 9 9 8 8 7 7 7 6 6 6 5 5 5 5 5 5 5
11 11 11 11 11 11 11 12 12 12 11 11 11 11 11 11 11 11 11 11 11 10 9 9 8 8 8 7 7 7 7 6 6 5 5 5 5 5 4 4 4 4
11 11 11 11 11 11 11 11 11 11 11 11 11 11 11 10 10 11 11 10 10 9 9 8 7 7 7 7 7 6 6 6 5 5 5 4 4 4 4 3 3 3
11 10 10 10 10 10 10 10 11 11 11 11 11 10 10 10 10 10 10 9 9 9 8 7 7 7 7 7 6 6 6 6 5 5 4 4 4 3 3 3 3 3
10 10 10 10 10 10 10 10 10 10 10 10 10 9 9 9 10 10 9 9 8 8 8 7 7 7 7 6 6 6 6 5 5 4 4 3 3 3 2 2 2 2
10 10 10 10 10 10 10 10 10 10 10 10 9 9 9 9 9 9 9 8 8 8 7 7 6 7 6 6 6 6 5 5 4 4 3 3 3 2 2 2 2 2
9 9 10 9 9 9 10 10 9 9 9 9 8 8 8 8 9 8 8 7 7 7 7 7 7 6 6 6 6 5 5 4 4 4 3 3 3 2 2 2 1 1
9 9 9 9 9 9 10 9 9 9 8 8 8 8 8 8 8 7 7 7 7 7 7 7 6 6 6 6 5 5 5 4 4 4 3 3 3 2 2 2 2 1
9 9 9 9 9 9 9 9 8 8 7 7 7 7 7 7 7 7 7 7 7 7 6 6 6 6 6 6 5 5 5 4 4 4 3 3 3 2 2 2 2 2
8 9 9 9 9 8 8 8 7 6 6 6 6 6 6 7 7 7 6 6 6 6 6 6 6 6 6 5 5 5 4 4 3 3 3 3 3 2 2 2 3 3
Height
806 808 809 811 812 813 814 815 816 817 818 819 820 820 821 822 823 824 825 826 826 827 827 828 828 829 829 829 829 830 830 830 830 831 831 831 831 831 831 832 831 832
805 807 808 810 811 812 814 815 816 817 817 818 819 820 820 821 822 823 824 825 826 827 827 828 828 828 829 829 829 830 830 830 830 831 831 831 831 831 831 831 831 831
804 805 807 808 809 811 812 814 815 816 817 817 818 819 820 820 821 822 823 824 825 826 827 828 828 828 829 829 829 829 830 830 830 831 831 831 831 831 831 831 831 831
802 804 805 806 808 809 811 812 813 814 815 816 817 818 819 819 820 821 822 824 824 826 826 827 828 828 829 829 829 830 830 830 830 830 831 831 831 831 831 831 831 831
800 802 803 804 805 807 808 809 810 811 812 814 815 816 817 818 819 820 821 822 823 824 825 826 827 827 828 828 829 829 829 830 830 830 830 831 831 831 831 831 831 831
798 799 800 802 803 804 806 807 808 809 810 812 813 814 816 817 818 819 820 821 822 823 824 825 826 826 827 827 828 828 829 829 829 829 829 830 830 830 830 830 831 830
796 797 798 799 800 802 803 804 806 807 808 809 811 812 814 815 816 817 818 820 820 821 822 823 824 825 825 826 826 827 827 827 828 828 828 829 829 829 829 829 829 830
793 794 795 796 797 798 800 801 802 804 805 807 808 810 812 813 814 816 817 818 819 820 821 821 822 823 823 824 825 825 826 826 826 827 827 827 827 828 828 828 828 828
790 791 792 793 794 795 796 797 799 800 802 804 805 807 809 810 812 813 815 816 817 818 819 820 820 821 822 823 824 824 825 825 826 826 826 827 827 827 827 827 827 827
788 789 789 790 791 791 792 793 795 797 798 800 801 803 805 807 809 811 813 814 815 816 817 818 818 819 821 821 822 823 824 824 825 825 826 826 826 826 826 826 826 826
786 786 787 787 788 789 789 791 792 794 795 796 797 799 801 804 806 808 810 811 812 814 815 816 817 818 819 820 821 822 822 823 824 824 825 825 825 825 825 825 825 825
783 785 785 785 786 786 787 788 789 791 792 794 796 799 801 802 804 805 807 808 810 811 813 814 815 816 818 819 819 820 821 822 822 823 823 823 823 824 823 823 823 823
781 783 784 783 783 783 784 785 786 787 788 790 794 798 800 801 803 804 804 805 807 809 810 812 813 814 815 817 818 819 820 820 821 822 822 822 822 822 822 821 821 820
780 781 781 781 781 781 781 782 783 784 785 787 789 791 793 796 798 800 801 802 804 806 807 809 810 811 813 814 816 817 818 819 820 821 821 821 821 820 820 819 818 818
779 779 779 778 778 778 778 779 780 781 782 783 785 787 789 792 793 795 796 797 798 800 802 805 807 808 810 812 814 815 817 818 819 820 820 820 820 819 818 817 816 815
777 776 776 776 775 775 775 776 777 778 779 781 782 784 786 788 789 791 792 793 794 795 797 799 802 804 807 809 811 813 815 816 817 818 819 818 818 817 816 815 814 813
775 774 774 773 773 773 773 773 775 776 777 778 780 781 783 784 786 788 790 792 793 794 795 797 799 802 804 806 809 811 813 814 815 816 817 816 816 815 814 812 811 810
773 772 771 771 771 771 771 771 772 773 775 776 777 778 780 782 784 786 788 791 793 794 796 797 798 800 803 805 807 809 810 811 813 814 814 814 814 812 811 810 809 807
771 770 769 768 768 769 769 769 770 771 772 773 774 776 778 780 782 784 787 789 791 794 796 797 798 800 802 804 806 807 808 809 810 811 812 812 811 810 809 807 806 804
769 768 767 767 766 766 767 767 767 768 770 771 772 774 776 778 780 783 785 787 790 793 796 798 799 800 801 803 805 806 806 807 808 809 809 809 808 807 805 804 803 801
767 766 765 765 764 764 765 765 765 766 767 768 770 772 774 776 778 781 784 787 789 792 795 797 799 800 801 802 803 804 805 805 806 806 806 806 805 804 802 801 799 797
765 764 763 762 762 762 762 762 763 764 765 766 768 771 773 775 777 779 782 785 788 791 793 796 798 799 801 802 802 803 803 804 804 804 804 803 802 800 799 797 796 794
762 761 760 760 760 760 760 760 761 762 763 765 767 769 772 774 776 779 782 785 787 789 792 795 797 799 800 801 801 802 802 803 803 803 802 801 799 797 796 794 793 792
760 759 758 757 757 757 758 758 759 760 762 764 766 768 771 773 777 780 784 786 787 789 792 795 796 798 800 800 800 801 801 802 802 801 800 798 796 794 793 792 790 789
756 755 755 754 754 755 755 756 757 759 761 764 767 769 771 774 778 782 785 787 789 791 793 794 796 798 799 799 800 800 800 800 800 799 797 795 794 792 790 789 788 786
752 751 751 751 751 752 753 754 756 758 761 764 768 772 775 777 780 782 785 788 790 792 793 794 796 797 797 798 799 799 799 798 798 797 795 793 792 790 788 786 785 783
Wind_Speed
25 24 23 23 21 20 19 17 17 16 16 15 15 15 15 14 13 11 9 8 7 6 5 5 6 6 6 7 7 8 9 9 9 9 9 9 9 9 9 9 8 6
26 25 24 24 23 21 20 19 17 17 17 15 14 14 14 15 13 12 11 9 8 7 5 4 5 5 5 6 6 7 8 8 8 8 7 8 8 8 8 8 7 6
27 26 26 25 25 22 20 19 19 18 17 17 15 14 15 15 15 13 12 10 9 7 5 4 3 3 4 5 5 6 7 7 7 7 6 6 6 6 7 7 7 7
27 27 27 26 25 24 22 21 21 20 19 19 17 16 16 16 15 14 13 11 10 8 6 5 3 3 3 3 4 5 6 5 5 5 5 5 5 5 5 6 6 6
28 28 28 27 26 25 23 23 23 22 21 21 20 18 18 17 16 15 14 13 12 10 8 6 4 4 3 3 3 4 4 4 4 3 4 4 3 3 4 5 5 6
29 29 29 29 28 27 26 25 25 24 23 23 22 21 20 19 18 17 16 15 14 12 10 8 6 5 5 4 3 3 3 3 3 2 2 2 2 3 3 4 4 5
29 30 30 30 30 29 29 28 27 27 26 24 23 22 22 21 20 18 17 16 15 13 11 9 8 7 6 5 4 2 2 2 2 2 1 1 2 2 3 4 5 6
31 31 31 31 30 30 31 31 30 29 28 26 24 23 23 22 21 20 18 17 16 15 13 11 9 8 7 6 4 3 2 0 1 1 1 1 1 1 3 4 5 6
31 32 32 32 31 32 32 32 32 31 30 29 27 25 23 23 22 21 20 19 18 16 14 12 11 9 8 6 5 4 2 1 0 1 1 1 0 1 3 5 6 7
29 30 31 31 32 33 34 33 33 32 32 30 28 26 24 23 23 22 21 21 20 18 16 14 12 10 8 6 5 4 3 1 1 1 1 1 2 3 4 6 6 7
26 27 27 28 30 32 33 33 32 32 32 32 31 29 26 24 23 24 23 23 21 20 17 14 12 10 7 6 5 5 3 2 2 2 2 3 4 5 7 8 8 9
23 24 24 26 28 30 31 31 30 30 30 29 26 23 23 24 24 25 25 24 23 20 17 14 11 9 7 7 7 5 4 3 3 3 4 5 7 7 8 10 11 12
22 23 24 25 26 27 29 29 29 29 27 26 22 20 21 23 24 26 26 25 24 20 16 14 11 10 9 9 7 6 5 5 5 5 6 8 9 10 12 13 15 15
19 20 23 26 27 26 26 27 29 29 27 25 25 26 25 25 26 28 28 27 24 20 16 14 12 11 11 10 9 7 6 5 5 6 7 9 11 13 14 16 17 18
12 14 17 20 23 24 24 25 26 27 27 25 24 25 26 26 29 31 31 29 26 22 19 17 15 14 13 12 10 8 6 5 5 7 8 10 11 13 15 17 18 18
10 11 12 14 17 20 22 23 24 25 25 24 24 24 26 28 31 32 32 31 28 25 22 20 19 17 14 12 9 7 4 3 5 7 9 11 13 14 15 16 17 17
12 12 11 12 14 16 19 21 21 22 23 23 24 25 27 30 32 33 31 29 26 25 23 22 20 17 14 11 8 5 3 2 5 8 10 12 13 14 15 16 16 16
14 13 12 13 13 14 17 20 20 20 21 23 24 26 28 31 32 32 30 26 24 23 22 21 19 16 13 10 6 4 2 3 6 9 11 12 13 14 15 15 15 15
15 15 14 14 14 13 15 18 20 19 20 22 24 26 29 31 31 31 28 25 24 22 21 19 17 14 11 8 5 2 2 4 7 10 12 13 14 15 14 14 15 15
15 15 15 15 14 12 12 16 19 20 20 23 25 26 29 30 30 29 26 25 23 22 20 17 15 12 9 6 3 1 4 6 9 13 15 15 16 16 15 15 15 15
16 16 16 15 14 12 12 14 18 20 21 23 25 27 29 31 30 28 26 24 23 21 18 15 12 9 6 3 1 3 6 9 12 16 16 15 16 16 15 15 16 15
16 16 17 15 13 13 13 14 17 20 22 23 25 26 28 29 28 27 27 25 23 19 16 13 9 5 3 1 2 5 8 10 13 14 13 13 15 15 16 16 15 15
17 17 18 17 14 14 14 15 18 21 22 24 26 27 29 29 28 28 26 24 20 16 13 10 7 4 2 1 4 7 9 11 12 12 12 13 14 15 16 15 14 14
18 17 18 17 15 15 15 16 18 21 22 24 28 30 30 29 28 25 21 18 15 12 10 7 6 3 0 3 5 8 11 12 12 12 13 14 15 15 15 15 15 16
19 19 19 17 16 16 17 18 19 20 21 22 24 27 29 27 25 22 18 14 12 10 8 6 4 2 2 5 7 9 12 13 12 13 15 16 16 17 17 16 17 18
20 21 20 17 16 18 19 20 20 21 22 23 25 26 27 25 22 20 17 13 10 8 6 4 3 2 4 6 8 10 12 14 14 14 16 18 17 18 19 20 20 21
Wind_Direction
222 224 227 229 229 227 222 216 211 209 207 203 199 193 185 182 181 181 183 185 186 178 154 130 120 120 121 118 112 104 99 96 96 94 91 87 83 79 74 69 65 62
226 227 229 231 233 234 232 226 221 217 215 214 211 204 195 190 189 191 193 193 190 185 172 148 136 136 133 130 124 110 102 100 99 99 94 88 82 75 68 64 61 60
229 230 230 232 234 237 238 235 231 226 223 221 218 212 204 199 198 199 200 200 196 192 184 166 150 149 144 138 128 113 104 102 103 103 101 92 85 76 66 59 55 52
232 234 233 234 235 238 241 240 237 234 230 226 223 219 213 208 205 203 201 200 200 198 193 187 180 173 165 145 125 109 100 98 101 104 106 100 90 79 62 53 50 46
233 235 236 237 238 239 240 239 239 239 237 233 228 224 219 215 211 206 202 199 200 201 200 198 201 199 190 171 137 110 93 86 84 88 100 103 94 72 54 49 45 38
235 235 236 238 240 242 243 243 243 243 242 240 234 228 224 220 216 211 206 202 200 201 200 200 204 203 199 194 167 117 96 81 59 57 80 88 69 49 47 48 36 22
240 239 238 238 239 242 244 245 246 247 247 245 239 232 227 223 219 215 211 206 202 200 198 199 201 200 198 195 181 142 108 74 41 47 76 68 47 36 33 27 13 3
244 244 244 242 241 242 243 244 246 247 248 246 242 235 229 225 221 217 213 209 205 200 196 197 197 198 198 192 180 170 158 80 33 103 126 100 63 31 5 355 350 346
246 247 247 246 245 245 245 245 245 245 246 246 243 238 230 225 223 219 214 210 207 202 199 199 198 199 200 194 183 180 188 232 254 159 157 144 68 344 335 336 336 335
251 249 248 247 248 248 248 248 247 246 245 243 241 238 230 224 221 218 213 210 207 204 203 202 201 202 202 193 188 190 195 207 204 192 198 254 303 312 317 321 323 322
256 253 250 249 250 252 253 252 250 248 246 244 241 236 228 221 217 214 212 210 207 206 206 205 205 206 200 193 198 203 203 201 202 217 260 290 300 306 310 313 314 313
264 262 260 257 255 255 256 255 253 251 249 244 239 233 226 219 214 210 209 209 209 209 208 206 205 201 194 195 202 204 204 209 222 250 276 287 297 305 307 308 309 307
271 271 272 270 264 259 257 256 256 255 250 242 238 237 229 219 214 211 209 208 208 206 205 204 201 196 195 197 200 201 208 224 244 265 280 289 296 301 304 305 306 305
275 275 276 275 271 266 261 258 256 255 251 245 242 238 228 217 213 211 207 204 203 201 200 200 197 193 193 195 200 210 220 236 261 282 294 301 304 306 307 308 307 304
286 280 275 273 271 268 264 260 257 253 251 247 242 235 226 217 212 208 203 199 196 195 195 195 192 190 192 196 203 213 227 250 281 301 312 316 315 313 311 309 307 303
306 294 282 272 269 267 265 263 258 254 250 245 239 233 224 215 209 205 202 198 193 190 188 186 186 187 191 198 202 208 229 277 306 321 328 328 324 319 313 309 306 301
318 308 291 274 266 265 266 264 259 253 249 243 237 230 221 213 206 202 199 197 192 187 181 177 178 181 186 191 194 203 228 304 330 335 334 330 325 319 312 307 304 299
316 311 299 282 269 261 260 261 258 252 246 239 233 226 217 209 202 197 193 191 188 182 176 171 170 173 177 178 181 198 248 334 343 340 336 330 324 317 310 305 301 298
311 307 300 290 277 263 255 256 254 247 241 236 230 222 212 201 195 192 188 184 180 175 170 165 162 164 168 168 171 199 317 343 346 343 337 330 325 319 311 304 300 297
305 300 296 292 282 265 250 249 248 243 237 232 224 214 203 194 189 184 179 175 173 171 166 160 157 159 164 166 174 284 332 341 344 342 338 333 328 322 313 306 300 296
302 297 294 290 280 263 245 240 241 238 231 224 216 207 197 189 183 177 172 168 168 167 162 157 156 158 163 174 240 323 335 343 344 341 337 332 327 323 316 307 300 294
300 296 292 288 277 259 243 234 233 231 223 214 205 196 189 182 176 170 167 164 163 164 162 159 160 168 185 235 311 330 340 346 344 338 333 327 322 320 315 308 299 292
295 291 288 285 274 256 241 229 225 223 216 206 195 185 177 173 167 164 163 162 159 160 162 161 161 171 196 302 329 336 343 345 340 331 324 320 318 316 312 306 296 290
288 285 282 278 267 251 236 222 217 213 204 196 189 178 169 163 159 155 154 154 150 146 146 145 144 149 35 341 334 333 338 338 333 325 321 319 318 315 310 304 297 294
282 279 274 268 257 242 226 212 203 195 186 180 173 163 154 150 146 140 135 132 131 128 126 123 118 100 351 339 331 328 331 333 329 323 320 319 316 314 311 305 301 299
278 273 268 259 243 227 213 199 187 175 165 156 146 138 135 133 128 124 121 119 118 114 108 100 83 15 335 328 324 322 326 328 325 319 317 316 313 311 311 307 304 301